When you browse on this site, cookies collect data to enhance your experience and personalize the content and advertising you see.
Visit our Privacy Policy to learn more. By continuing to use the site, you agree to this use of cookies and data.
  • In France
  • List of Countries
  • For 7 days
  • Water Temperature
  • Weather Map
  • Weather Widgets
  • user-avatar
    Login

    Hourly Weather El Guna

    Today, 2 June, Tuesday

    Time Temperature Precipitation Wind Pressure Humidity
    00:00 +25°C° 0 mm 0 mps 729 mmHg 26%
    01:00 +27°C° 0 mm 1 mps 729 mmHg 26%
    02:00 +27°C° 0 mm 1 mps 728 mmHg 27%
    03:00 +27°C° 0 mm 1 mps 728 mmHg 27%
    04:00 +27°C° 0 mm 1 mps 728 mmHg 27%
    05:00 +27°C° 0 mm 2 mps 728 mmHg 26%
    06:00 +30°C° 0 mm 3 mps 729 mmHg 22%
    07:00 +34°C° 0 mm 4 mps 730 mmHg 18%
    08:00 +37°C° 0 mm 5 mps 730 mmHg 14%
    09:00 +39°C° 0 mm 5 mps 730 mmHg 14%
    10:00 +39°C° 0 mm 6 mps 730 mmHg 14%
    11:00 +40°C° 0 mm 7 mps 730 mmHg 14%
    12:00 +40°C° 0 mm 7 mps 730 mmHg 13%
    13:00 +40°C° 0 mm 7 mps 730 mmHg 13%
    14:00 +40°C° 0 mm 7 mps 729 mmHg 12%
    15:00 +40°C° 0 mm 7 mps 729 mmHg 12%
    16:00 +39°C° 0 mm 7 mps 729 mmHg 12%
    17:00 +38°C° 0 mm 7 mps 729 mmHg 12%
    18:00 +35°C° 0 mm 6 mps 729 mmHg 14%
    19:00 +32°C° 0 mm 5 mps 729 mmHg 17%
    20:00 +29°C° 0 mm 4 mps 730 mmHg 19%
    21:00 +28°C° 0 mm 3 mps 730 mmHg 21%
    22:00 +27°C° 0 mm 2 mps 730 mmHg 22%
    23:00 +26°C° 0 mm 2 mps 730 mmHg 23%

    Tomorrow, 3 June, Wednesday

    Time Temperature Precipitation Wind Pressure Humidity
    00:00 +26°C° 0 mm 2 mps 730 mmHg 24%
    01:00 +25°C° 0 mm 2 mps 730 mmHg 26%
    02:00 +25°C° 0 mm 2 mps 729 mmHg 27%
    03:00 +25°C° 0 mm 2 mps 730 mmHg 29%
    04:00 +24°C° 0 mm 2 mps 730 mmHg 31%
    05:00 +24°C° 0 mm 2 mps 730 mmHg 33%
    06:00 +26°C° 0 mm 2 mps 730 mmHg 29%
    07:00 +29°C° 0 mm 3 mps 731 mmHg 26%
    08:00 +31°C° 0 mm 3 mps 731 mmHg 22%
    09:00 +34°C° 0 mm 3 mps 731 mmHg 20%
    10:00 +35°C° 0 mm 4 mps 732 mmHg 18%
    11:00 +37°C° 0 mm 5 mps 732 mmHg 16%
    12:00 +37°C° 0 mm 5 mps 731 mmHg 16%
    13:00 +39°C° 0 mm 5 mps 731 mmHg 15%
    14:00 +39°C° 0 mm 6 mps 730 mmHg 14%
    15:00 +39°C° 0 mm 5 mps 730 mmHg 15%
    16:00 +37°C° 0 mm 5 mps 730 mmHg 15%
    17:00 +37°C° 0 mm 4 mps 730 mmHg 15%
    18:00 +35°C° 0 mm 3 mps 730 mmHg 18%
    19:00 +33°C° 0 mm 3 mps 730 mmHg 21%
    20:00 +29°C° 0 mm 2 mps 730 mmHg 23%
    21:00 +29°C° 0 mm 2 mps 730 mmHg 24%
    22:00 +29°C° 0 mm 2 mps 730 mmHg 24%
    23:00 +28°C° 0 mm 1 mps 731 mmHg 25%

    Day after tomorrow, 4 June, Thursday

    Time Temperature Precipitation Wind Pressure Humidity
    00:00 +28°C° 0 mm 1 mps 730 mmHg 25%
    01:00 +27°C° 0 mm 1 mps 730 mmHg 26%
    02:00 +27°C° 0 mm 1 mps 730 mmHg 27%
    03:00 +26°C° 0 mm 1 mps 730 mmHg 28%
    04:00 +26°C° 0 mm 1 mps 730 mmHg 28%
    05:00 +26°C° 0 mm 1 mps 730 mmHg 29%
    06:00 +28°C° 0 mm 1 mps 730 mmHg 25%
    07:00 +31°C° 0 mm 1 mps 731 mmHg 22%
    08:00 +34°C° 0 mm 1 mps 731 mmHg 19%
    09:00 +36°C° 0 mm 2 mps 731 mmHg 18%
    10:00 +38°C° 0 mm 2 mps 731 mmHg 16%
    11:00 +39°C° 0 mm 3 mps 731 mmHg 15%
    12:00 +41°C° 0 mm 4 mps 731 mmHg 15%
    13:00 +41°C° 0 mm 4 mps 731 mmHg 14%
    14:00 +42°C° 0 mm 5 mps 730 mmHg 14%
    15:00 +41°C° 0 mm 4 mps 730 mmHg 14%
    16:00 +41°C° 0 mm 4 mps 730 mmHg 14%
    17:00 +39°C° 0 mm 3 mps 730 mmHg 15%
    18:00 +37°C° 0 mm 3 mps 730 mmHg 18%
    19:00 +34°C° 0 mm 2 mps 730 mmHg 21%
    20:00 +31°C° 0 mm 1 mps 730 mmHg 25%
    21:00 +30°C° 0 mm 2 mps 730 mmHg 26%
    22:00 +30°C° 0 mm 2 mps 730 mmHg 27%
    23:00 +29°C° 0 mm 2 mps 730 mmHg 29%

    5 June, Friday

    Time Temperature Precipitation Wind Pressure Humidity
    00:00 +28°C° 0 mm 2 mps 730 mmHg 30%
    01:00 +28°C° 0 mm 2 mps 730 mmHg 31%
    02:00 +27°C° 0 mm 2 mps 730 mmHg 32%
    03:00 +27°C° 0 mm 2 mps 730 mmHg 34%
    04:00 +26°C° 0 mm 2 mps 730 mmHg 35%
    05:00 +25°C° 0 mm 2 mps 730 mmHg 37%
    06:00 +28°C° 0 mm 2 mps 730 mmHg 32%
    07:00 +30°C° 0 mm 2 mps 731 mmHg 27%
    08:00 +34°C° 0 mm 2 mps 731 mmHg 22%
    09:00 +36°C° 0 mm 2 mps 731 mmHg 20%
    10:00 +38°C° 0 mm 3 mps 731 mmHg 18%
    11:00 +40°C° 0 mm 4 mps 732 mmHg 16%
    12:00 +41°C° 0 mm 4 mps 731 mmHg 15%
    13:00 +42°C° 0 mm 4 mps 731 mmHg 14%
    14:00 +43°C° 0 mm 5 mps 730 mmHg 14%
    15:00 +42°C° 0 mm 4 mps 730 mmHg 14%
    16:00 +41°C° 0 mm 4 mps 730 mmHg 15%
    17:00 +41°C° 0 mm 4 mps 730 mmHg 15%
    18:00 +37°C° 0 mm 4 mps 730 mmHg 19%
    19:00 +35°C° 0 mm 3 mps 730 mmHg 23%
    20:00 +31°C° 0 mm 3 mps 730 mmHg 26%
    21:00 +30°C° 0 mm 3 mps 731 mmHg 28%
    22:00 +29°C° 0 mm 2 mps 731 mmHg 29%
    23:00 +28°C° 0 mm 2 mps 731 mmHg 31%

    6 June, Saturday

    Time Temperature Precipitation Wind Pressure Humidity
    00:00 +28°C° 0 mm 2 mps 730 mmHg 31%
    01:00 +27°C° 0 mm 2 mps 730 mmHg 32%
    02:00 +27°C° 0 mm 2 mps 730 mmHg 33%
    03:00 +26°C° 0 mm 2 mps 730 mmHg 34%
    04:00 +26°C° 0 mm 1 mps 730 mmHg 36%
    05:00 +25°C° 0 mm 1 mps 730 mmHg 37%
    06:00 +28°C° 0 mm 1 mps 730 mmHg 32%
    07:00 +30°C° 0 mm 2 mps 731 mmHg 27%
    08:00 +34°C° 0 mm 2 mps 731 mmHg 22%
    09:00 +36°C° 0 mm 2 mps 731 mmHg 19%
    10:00 +37°C° 0 mm 3 mps 731 mmHg 16%
    11:00 +39°C° 0 mm 3 mps 731 mmHg 13%
    12:00 +41°C° 0 mm 4 mps 731 mmHg 13%
    13:00 +41°C° 0 mm 4 mps 730 mmHg 12%
    14:00 +42°C° 0 mm 5 mps 730 mmHg 12%
    15:00 +41°C° 0 mm 4 mps 730 mmHg 12%
    16:00 +40°C° 0 mm 3 mps 729 mmHg 13%
    17:00 +39°C° 0 mm 3 mps 729 mmHg 14%
    18:00 +37°C° 0 mm 2 mps 729 mmHg 17%
    19:00 +34°C° 0 mm 2 mps 729 mmHg 20%
    20:00 +30°C° 0 mm 2 mps 729 mmHg 24%
    21:00 +30°C° 0 mm 1 mps 730 mmHg 25%
    22:00 +29°C° 0 mm 1 mps 730 mmHg 25%
    23:00 +28°C° 0 mm 1 mps 730 mmHg 26%

    7 June, Sunday

    Time Temperature Precipitation Wind Pressure Humidity
    00:00 +28°C° 0 mm 1 mps 730 mmHg 27%
    01:00 +27°C° 0 mm 1 mps 729 mmHg 27%
    02:00 +26°C° 0 mm 1 mps 729 mmHg 28%
    03:00 +26°C° 0 mm 1 mps 729 mmHg 29%
    04:00 +25°C° 0 mm 1 mps 729 mmHg 29%
    05:00 +25°C° 0 mm 1 mps 729 mmHg 29%
    06:00 +28°C° 0 mm 1 mps 729 mmHg 25%
    07:00 +31°C° 0 mm 2 mps 730 mmHg 22%
    08:00 +35°C° 0 mm 2 mps 730 mmHg 18%
    09:00 +37°C° 0 mm 2 mps 730 mmHg 16%
    10:00 +38°C° 0 mm 2 mps 730 mmHg 14%
    11:00 +40°C° 0 mm 3 mps 730 mmHg 12%
    12:00 +42°C° 0 mm 3 mps 730 mmHg 11%
    13:00 +42°C° 0 mm 3 mps 730 mmHg 11%
    14:00 +43°C° 0 mm 4 mps 729 mmHg 10%
    15:00 +42°C° 0 mm 3 mps 729 mmHg 11%
    16:00 +40°C° 0 mm 3 mps 729 mmHg 12%
    17:00 +40°C° 0 mm 3 mps 728 mmHg 12%
    18:00 +37°C° 0 mm 3 mps 728 mmHg 15%
    19:00 +34°C° 0 mm 2 mps 729 mmHg 18%
    20:00 +31°C° 0 mm 2 mps 729 mmHg 21%
    21:00 +30°C° 0 mm 2 mps 729 mmHg 20%
    22:00 +30°C° 0 mm 2 mps 729 mmHg 20%
    23:00 +29°C° 0 mm 2 mps 729 mmHg 19%
    Show more